This is the latest recevied weather packets stored in our database for station/object N2OCK. If no packets are shown the sender has not sent any weather packets the latest 10 day(s).
| Time | Temp. | Humidity | Pressure | Rain* | Wind** | Luminosity | Snow |
|---|---|---|---|---|---|---|---|
| 1777844192 | 15° C | 31% | 1010 hPa | 0 mm | - | 249 W/m² | - |
| 1777843887 | 15° C | 31% | 1010.2 hPa | 0 mm | - | 261 W/m² | - |
| 1777843585 | 15° C | 31% | 1010 hPa | 0 mm | - | 278 W/m² | - |
| 1777843282 | 15° C | 31% | 1010 hPa | 0 mm | - | 292 W/m² | - |
| 1777842980 | 15° C | 32% | 1010.1 hPa | 0 mm | - | 306 W/m² | - |
| 1777842675 | 15° C | 33% | 1010.2 hPa | 0 mm | - | 320 W/m² | - |
| 1777842372 | 15° C | 32% | 1010 hPa | 0 mm | - | 336 W/m² | - |
| 1777842069 | 15° C | 32% | 1010 hPa | 0 mm | - | 351 W/m² | - |
| 1777841764 | 15° C | 32% | 1010.1 hPa | 0 mm | - | 365 W/m² | - |
| 1777841461 | 14.44° C | 34% | 1010 hPa | 0 mm | - | 379 W/m² | - |
| 1777841158 | 15° C | 33% | 1010 hPa | 0 mm | - | 395 W/m² | - |
| 1777840855 | 14.44° C | 34% | 1009.9 hPa | 0 mm | - | 413 W/m² | - |
| 1777840552 | 14.44° C | 33% | 1010 hPa | 0 mm | - | 423 W/m² | - |
| 1777840249 | 14.44° C | 35% | 1009.8 hPa | 0 mm | - | 436 W/m² | - |
| 1777839947 | 14.44° C | 34% | 1010.1 hPa | 0 mm | - | 448 W/m² | - |
| 1777839645 | 14.44° C | 36% | 1010.3 hPa | 0 mm | - | 461 W/m² | - |
| 1777839343 | 13.89° C | 36% | 1010 hPa | 0 mm | - | 474 W/m² | - |
| 1777839040 | 14.44° C | 36% | 1010.1 hPa | 0 mm | - | 486 W/m² | - |
| 1777838736 | 14.44° C | 35% | 1010.2 hPa | 0 mm | - | 501 W/m² | - |
| 1777838433 | 15° C | 33% | 1010.2 hPa | 0 mm | - | 526 W/m² | - |
| 1777838130 | 14.44° C | 35% | 1010.1 hPa | 0 mm | - | 524 W/m² | - |
| 1777837827 | 14.44° C | 35% | 1010.2 hPa | 0 mm | - | 536 W/m² | - |
| 1777837524 | 14.44° C | 36% | 1010.3 hPa | 0 mm | - | 555 W/m² | - |
| 1777837223 | 13.89° C | 37% | 1010.2 hPa | 0 mm | - | 569 W/m² | - |
| 1777836921 | 13.89° C | 37% | 1010.4 hPa | 0 mm | - | 567 W/m² | - |
* Rain latest hour (hover to see other rain measurements)
** Current wind speed in m/s (hover to see current wind gust speed)